Temp
69 69 69 68 69 69 68 66 66 65 65 65 64 64 63 63 63 61 60 60 60 60 60 62 62 60 60 60 62 62 62 61 61 61 61 60 58 57 56 57 59 60
69 69 68 68 68 68 69 68 66 65 65 65 66 66 64 63 61 60 60 59 59 60 60 61 61 59 58 59 59 60 60 60 59 58 61 59 58 57 56 57 57 57
68 68 68 67 68 68 68 69 66 65 65 64 65 65 62 60 60 59 59 59 59 59 59 60 60 60 59 59 59 58 58 58 57 57 58 58 57 57 56 55 54 54
67 67 67 67 67 68 67 67 65 63 63 62 62 61 60 58 59 58 58 56 59 58 58 58 58 59 59 59 58 57 57 57 57 56 55 55 55 55 54 54 52 51
65 66 66 66 66 66 66 65 63 62 61 61 61 60 58 57 57 56 56 56 58 57 57 56 56 57 56 56 56 56 56 55 54 55 53 51 52 53 52 50 49 48
64 64 64 64 64 64 64 63 62 61 61 60 59 57 57 56 56 54 54 54 54 54 55 55 56 55 56 57 56 55 54 53 53 54 52 50 49 50 49 49 48 46
61 62 61 62 61 62 62 61 61 61 61 60 58 55 55 54 54 54 54 54 54 53 54 53 53 51 53 54 53 51 51 51 50 51 50 49 47 45 46 47 46 45
60 60 60 60 59 59 60 60 60 59 58 57 55 54 54 53 53 53 53 54 54 54 53 52 52 52 51 53 51 49 47 48 49 51 48 44 44 42 43 43 44 43
59 58 57 57 57 57 56 57 57 57 57 55 54 52 52 52 52 52 52 52 53 53 52 51 51 50 50 51 51 49 47 46 48 49 45 42 43 41 41 41 41 40
56 56 55 55 55 55 55 56 56 55 54 54 53 51 50 50 51 51 50 49 50 49 48 48 48 47 48 50 52 51 48 46 46 46 44 43 43 42 41 41 41 40
53 54 54 54 54 54 54 54 54 53 51 52 51 50 50 48 47 48 49 48 48 46 46 46 45 46 47 48 49 50 48 46 44 43 43 43 43 43 40 42 42 41
52 52 52 53 53 53 53 52 51 50 50 49 49 48 46 46 46 45 46 46 46 46 45 44 44 44 45 46 46 46 45 43 41 41 42 43 43 43 42 42 42 42
51 51 51 51 51 50 48 48 48 47 47 47 46 46 44 43 43 44 43 45 44 44 44 43 43 43 44 44 44 43 43 42 41 41 42 43 43 42 41 42 41 41
49 48 48 48 47 46 45 45 45 44 44 44 43 43 43 43 43 43 42 43 42 42 42 42 42 42 42 42 40 40 42 42 41 41 42 41 40 41 41 40 40 40
48 46 46 45 43 43 43 43 42 43 42 42 42 43 43 43 43 42 42 42 42 42 42 42 42 40 40 40 39 40 42 42 42 41 41 40 39 39 39 39 39 39
44 43 43 42 42 42 42 42 42 41 41 41 42 42 41 41 41 42 41 41 41 40 41 42 41 41 38 38 40 41 43 42 41 41 41 40 39 38 38 38 38 38
40 41 40 41 41 41 41 40 40 40 40 40 40 40 39 39 39 39 40 41 40 39 39 39 40 39 37 39 40 40 41 41 41 40 40 40 40 39 37 37 37 37
40 39 39 39 39 40 39 39 39 38 39 38 38 38 38 38 39 40 39 38 39 39 39 38 38 37 38 39 40 41 40 42 42 40 40 39 39 39 38 37 36 35
39 39 39 39 39 38 39 38 38 38 38 38 38 38 37 37 39 38 38 37 38 38 38 38 38 36 38 39 40 41 40 41 41 40 39 39 39 39 38 37 36 35
39 39 39 39 38 37 37 37 38 38 38 39 38 37 37 37 37 37 37 37 38 38 38 38 38 36 38 39 40 40 40 40 40 39 40 39 39 38 37 37 36 35
39 39 39 38 38 37 37 38 38 38 37 37 37 36 37 36 36 36 36 36 37 38 40 39 38 36 38 39 40 40 39 39 39 38 39 38 38 37 37 36 36 35
39 39 39 38 37 37 37 37 37 37 36 37 36 37 37 38 37 37 36 36 38 39 40 38 39 37 38 39 40 39 38 37 38 38 37 37 37 37 36 36 36 35
39 39 39 38 37 37 37 37 36 36 36 37 36 37 37 38 37 37 37 37 36 37 37 39 39 38 38 38 39 38 37 36 35 36 35 35 35 35 35 34 35 35
40 40 38 37 37 36 36 37 37 36 36 37 37 37 37 37 38 38 37 37 36 37 37 37 37 37 37 38 38 38 36 35 36 35 33 33 32 33 34 33 33 31
40 38 38 37 36 36 37 36 36 36 37 37 38 37 37 39 38 38 37 37 36 37 35 37 36 35 37 37 37 37 37 35 36 35 32 32 31 31 31 31 32 31
37 36 36 36 36 36 36 36 37 37 36 36 37 39 38 38 38 37 35 36 36 35 35 36 36 35 36 37 37 36 36 36 36 34 31 30 30 30 29 30 30 31
MSLP
1014.73 1014.77 1014.97 1015.29 1015.37 1015.61 1015.93 1016.25 1016.49 1016.77 1017.01 1017.33 1017.65 1017.93 1018.21 1018.41 1018.69 1019.17 1019.49 1019.77 1019.97 1020.21 1020.41 1020.61 1020.85 1021.13 1021.41 1021.61 1021.65 1021.73 1021.97 1022.21 1022.41 1022.61 1022.81 1022.97 1023.21 1023.49 1023.73 1023.85 1023.85 1023.93
1014.49 1014.57 1014.69 1014.89 1015.05 1015.29 1015.45 1015.73 1016.13 1016.33 1016.57 1016.85 1017.05 1017.41 1017.77 1018.13 1018.53 1018.89 1019.21 1019.49 1019.73 1019.97 1020.17 1020.41 1020.61 1020.89 1021.21 1021.45 1021.57 1021.69 1021.93 1022.05 1022.37 1022.61 1022.57 1022.77 1023.09 1023.45 1023.57 1023.73 1023.97 1024.13
1014.17 1014.37 1014.45 1014.57 1014.69 1014.89 1015.13 1015.41 1015.69 1015.97 1016.21 1016.45 1016.77 1017.05 1017.49 1017.93 1018.29 1018.65 1018.93 1019.17 1019.49 1019.73 1019.97 1020.13 1020.41 1020.65 1020.93 1021.17 1021.37 1021.57 1021.77 1022.09 1022.37 1022.61 1022.57 1022.77 1023.01 1023.21 1023.57 1023.89 1024.17 1024.37
1013.93 1014.05 1014.17 1014.33 1014.45 1014.61 1014.89 1015.25 1015.49 1015.77 1016.05 1016.41 1016.65 1016.93 1017.29 1017.73 1018.09 1018.41 1018.65 1018.93 1019.21 1019.49 1019.77 1020.01 1020.17 1020.41 1020.69 1020.93 1021.21 1021.49 1021.73 1021.89 1022.13 1022.53 1022.77 1022.93 1023.13 1023.41 1023.77 1024.01 1024.41 1024.61
1013.69 1013.85 1013.93 1014.05 1014.29 1014.45 1014.73 1015.01 1015.25 1015.49 1015.85 1016.09 1016.45 1016.81 1017.25 1017.65 1017.97 1018.17 1018.41 1018.65 1018.85 1019.21 1019.49 1019.77 1020.01 1020.21 1020.53 1020.81 1021.05 1021.37 1021.61 1021.89 1022.25 1022.45 1022.77 1023.17 1023.37 1023.53 1023.89 1024.25 1024.57 1024.81
1013.41 1013.53 1013.65 1013.89 1014.13 1014.37 1014.61 1014.77 1014.93 1015.29 1015.69 1016.01 1016.21 1016.61 1016.93 1017.29 1017.57 1017.89 1018.17 1018.45 1018.69 1018.97 1019.25 1019.49 1019.81 1020.05 1020.21 1020.45 1020.85 1021.21 1021.61 1021.93 1022.25 1022.37 1022.77 1023.21 1023.57 1023.77 1024.01 1024.25 1024.61 1024.97
1013.05 1013.25 1013.45 1013.65 1013.93 1014.09 1014.25 1014.53 1014.73 1015.09 1015.37 1015.61 1016.05 1016.41 1016.69 1017.09 1017.33 1017.53 1017.81 1018.05 1018.41 1018.77 1019.05 1019.41 1019.69 1020.01 1020.17 1020.41 1020.73 1021.29 1021.69 1021.93 1022.29 1022.49 1022.69 1023.25 1023.61 1024.05 1024.21 1024.33 1024.73 1025.13
1012.81 1013.01 1013.21 1013.45 1013.65 1013.85 1014.01 1014.21 1014.45 1014.81 1015.09 1015.49 1015.81 1016.13 1016.41 1016.69 1016.93 1017.21 1017.45 1017.73 1018.01 1018.41 1018.89 1019.25 1019.49 1019.81 1020.09 1020.33 1020.73 1021.29 1021.77 1021.97 1022.13 1022.25 1022.77 1023.41 1023.73 1024.13 1024.41 1024.61 1024.89 1025.25
1012.81 1012.97 1013.09 1013.25 1013.45 1013.61 1013.77 1013.97 1014.25 1014.57 1014.85 1015.21 1015.53 1015.89 1016.21 1016.33 1016.57 1016.85 1017.13 1017.45 1017.77 1018.13 1018.61 1019.05 1019.29 1019.61 1019.89 1020.21 1020.61 1021.05 1021.65 1021.97 1021.97 1022.21 1022.77 1023.33 1023.61 1024.01 1024.41 1024.73 1025.01 1025.33
1012.77 1012.85 1013.01 1013.09 1013.17 1013.33 1013.53 1013.69 1013.93 1014.25 1014.57 1014.85 1015.13 1015.57 1015.89 1016.17 1016.33 1016.57 1016.97 1017.29 1017.65 1018.05 1018.41 1018.73 1019.21 1019.41 1019.77 1019.93 1020.13 1020.65 1021.33 1021.73 1021.97 1022.25 1022.73 1023.17 1023.53 1023.97 1024.37 1024.61 1024.73 1025.09
1012.77 1012.81 1012.85 1012.89 1012.97 1013.13 1013.25 1013.49 1013.73 1014.01 1014.37 1014.53 1014.93 1015.29 1015.57 1015.93 1016.37 1016.57 1016.73 1017.05 1017.45 1017.89 1018.33 1018.69 1019.05 1019.37 1019.65 1019.97 1020.21 1020.57 1021.01 1021.49 1021.93 1022.25 1022.65 1023.13 1023.53 1023.89 1024.25 1024.25 1024.45 1024.77
1012.77 1012.81 1012.77 1012.77 1012.85 1012.97 1013.13 1013.37 1013.65 1013.93 1014.25 1014.53 1014.77 1015.09 1015.61 1015.93 1016.13 1016.53 1016.65 1016.85 1017.29 1017.85 1018.13 1018.49 1019.01 1019.25 1019.53 1019.81 1020.21 1020.57 1020.97 1021.53 1021.93 1022.29 1022.69 1023.09 1023.45 1023.81 1024.01 1024.01 1024.25 1024.57
1012.73 1012.73 1012.73 1012.81 1012.89 1013.01 1013.25 1013.53 1013.73 1013.97 1014.21 1014.45 1014.81 1015.09 1015.49 1015.93 1016.37 1016.45 1016.61 1016.69 1017.29 1017.81 1018.09 1018.45 1018.85 1019.17 1019.45 1019.77 1020.13 1020.53 1020.93 1021.57 1021.97 1022.37 1022.81 1023.09 1023.45 1023.69 1023.77 1023.93 1024.29 1024.61
1012.69 1012.73 1012.81 1012.89 1013.05 1013.25 1013.45 1013.61 1013.85 1014.05 1014.25 1014.53 1014.85 1015.17 1015.45 1015.65 1015.89 1016.37 1016.61 1016.73 1017.21 1017.65 1017.97 1018.33 1018.65 1019.01 1019.37 1019.61 1019.97 1020.37 1020.85 1021.41 1021.89 1022.29 1022.73 1023.21 1023.49 1023.57 1023.69 1024.13 1024.45 1024.65
1012.77 1012.81 1012.85 1012.93 1013.09 1013.33 1013.57 1013.81 1014.01 1014.21 1014.49 1014.73 1014.93 1015.13 1015.37 1015.57 1015.81 1016.09 1016.41 1016.85 1017.33 1017.61 1017.97 1018.25 1018.45 1018.69 1019.01 1019.45 1019.97 1020.45 1020.77 1021.29 1021.73 1022.13 1022.49 1022.89 1023.21 1023.53 1023.93 1024.37 1024.57 1024.65
1013.17 1013.13 1013.13 1013.17 1013.29 1013.33 1013.49 1013.77 1014.05 1014.33 1014.61 1014.85 1015.01 1015.17 1015.45 1015.69 1015.89 1016.13 1016.09 1016.37 1017.05 1017.61 1017.85 1018.09 1018.37 1018.73 1019.13 1019.41 1019.73 1020.05 1020.57 1021.09 1021.57 1021.85 1022.17 1022.49 1022.85 1023.49 1024.13 1024.45 1024.53 1024.73
1013.69 1013.61 1013.69 1013.61 1013.61 1013.69 1013.85 1014.05 1014.29 1014.57 1014.77 1014.97 1015.17 1015.33 1015.53 1015.77 1015.97 1016.17 1016.33 1016.45 1016.73 1017.17 1017.65 1017.97 1018.29 1018.65 1019.09 1019.41 1019.65 1020.05 1020.41 1020.73 1021.05 1021.53 1021.97 1022.21 1022.65 1023.25 1023.81 1024.25 1024.57 1024.89
1013.77 1013.89 1013.97 1014.01 1014.13 1014.17 1014.33 1014.45 1014.61 1014.77 1014.85 1015.05 1015.25 1015.45 1015.69 1015.89 1015.89 1015.97 1016.21 1016.49 1016.89 1017.41 1017.73 1018.01 1018.37 1018.85 1019.17 1019.41 1019.65 1020.01 1020.29 1020.53 1020.77 1021.13 1021.65 1022.13 1022.65 1023.13 1023.53 1023.93 1024.37 1024.85
1013.73 1013.85 1013.97 1014.13 1014.29 1014.45 1014.61 1014.73 1014.81 1014.89 1014.97 1015.13 1015.17 1015.33 1015.61 1015.81 1015.85 1016.13 1016.49 1016.89 1017.13 1017.49 1017.97 1018.33 1018.69 1019.05 1019.21 1019.37 1019.57 1019.89 1020.29 1020.49 1020.69 1021.01 1021.45 1021.97 1022.49 1022.93 1023.33 1023.69 1024.13 1024.61
1013.73 1013.89 1013.97 1014.13 1014.37 1014.61 1014.77 1014.89 1014.97 1014.97 1015.13 1015.29 1015.45 1015.73 1015.89 1015.97 1016.21 1016.49 1016.85 1017.13 1017.37 1017.69 1018.05 1018.45 1018.73 1019.09 1019.25 1019.41 1019.57 1019.89 1020.25 1020.37 1020.57 1020.93 1021.37 1021.89 1022.37 1022.77 1023.09 1023.41 1023.77 1024.21
1013.65 1013.77 1013.89 1014.13 1014.37 1014.57 1014.73 1014.89 1014.97 1015.13 1015.37 1015.57 1015.77 1015.89 1016.01 1016.21 1016.53 1016.81 1017.09 1017.33 1017.61 1017.85 1018.09 1018.41 1018.61 1018.97 1019.13 1019.29 1019.53 1019.85 1020.21 1020.33 1020.61 1021.01 1021.57 1022.09 1022.49 1022.77 1022.97 1023.29 1023.69 1024.13
1013.57 1013.73 1013.93 1014.21 1014.45 1014.65 1014.77 1014.89 1015.05 1015.21 1015.37 1015.65 1015.89 1016.09 1016.17 1016.25 1016.49 1016.65 1016.93 1017.25 1017.45 1017.61 1017.73 1018.09 1018.37 1018.81 1019.01 1019.21 1019.45 1019.89 1020.09 1020.33 1020.69 1021.17 1021.69 1022.17 1022.57 1022.81 1023.05 1023.33 1023.69 1024.01
1013.33 1013.45 1013.73 1014.05 1014.37 1014.53 1014.61 1014.77 1014.93 1015.21 1015.53 1015.65 1015.73 1015.89 1016.01 1016.21 1016.33 1016.57 1016.85 1017.17 1017.37 1017.57 1017.73 1018.01 1018.29 1018.61 1018.85 1019.17 1019.45 1019.73 1019.93 1020.21 1020.69 1021.25 1021.81 1022.25 1022.53 1022.81 1023.13 1023.45 1023.77 1023.97
1013.25 1013.33 1013.49 1013.77 1014.09 1014.25 1014.41 1014.65 1014.85 1015.09 1015.29 1015.49 1015.57 1015.77 1016.01 1016.21 1016.41 1016.77 1017.09 1017.25 1017.49 1017.65 1017.69 1017.89 1018.21 1018.57 1018.85 1019.05 1019.29 1019.53 1019.57 1019.89 1020.53 1021.09 1021.77 1022.25 1022.65 1023.01 1023.21 1023.57 1023.85 1024.13
1013.25 1013.41 1013.57 1013.77 1013.93 1014.17 1014.41 1014.61 1014.85 1015.05 1015.29 1015.57 1015.61 1015.73 1015.97 1016.21 1016.49 1016.81 1017.09 1017.37 1017.61 1017.77 1017.89 1018.05 1018.33 1018.69 1018.85 1019.05 1019.25 1019.45 1019.61 1019.89 1020.29 1020.93 1021.57 1022.13 1022.57 1023.05 1023.37 1023.57 1023.97 1024.21
1013.29 1013.45 1013.61 1013.77 1013.97 1014.21 1014.45 1014.69 1014.93 1015.13 1015.37 1015.57 1015.69 1015.77 1016.05 1016.33 1016.69 1016.89 1017.25 1017.45 1017.73 1018.01 1018.13 1018.21 1018.45 1018.73 1018.85 1019.05 1019.21 1019.37 1019.49 1019.69 1020.05 1020.49 1021.17 1021.85 1022.33 1022.69 1023.21 1023.65 1023.93 1024.05
Wind_Speed
17 15 16 17 16 15 15 16 15 15 14 13 13 13 13 12 12 10 11 9 8 8 8 9 9 8 7 8 9 8 8 8 7 6 7 7 6 8 7 8 7 7
18 17 13 13 13 11 13 13 14 14 14 14 13 13 12 10 9 9 11 10 8 8 8 9 9 10 10 9 9 9 8 8 8 5 7 8 7 8 8 9 9 7
18 16 18 16 15 16 15 12 13 13 13 13 13 12 9 8 10 11 9 9 8 9 10 11 11 11 10 10 9 7 7 8 7 6 7 8 7 8 8 8 7 7
16 16 15 15 14 13 11 12 11 10 10 9 11 9 8 9 9 11 9 10 10 10 10 11 11 11 12 11 10 6 7 6 7 8 8 7 8 8 8 6 6 6
13 12 10 9 9 8 7 12 12 10 11 10 9 8 8 9 10 9 10 10 10 11 11 10 9 9 9 8 7 6 7 8 8 9 8 7 6 7 6 6 7 7
10 8 9 10 9 13 12 11 11 10 10 10 10 8 10 11 10 11 10 11 10 11 11 10 10 7 7 7 6 6 7 8 8 10 9 8 6 6 6 6 7 7
12 11 11 9 9 10 10 10 10 10 11 11 9 12 10 11 11 12 12 12 12 11 11 11 9 8 6 7 7 7 7 8 8 8 7 7 7 6 6 7 7 8
12 10 10 9 10 10 11 10 10 9 10 9 11 11 10 12 12 11 11 12 13 13 11 11 11 9 8 8 8 8 7 6 8 10 9 6 7 7 6 6 8 9
8 9 9 10 10 9 10 10 9 10 10 11 10 10 10 11 12 11 11 11 12 12 12 11 11 11 10 9 10 10 10 8 8 10 10 9 8 8 8 7 8 8
8 7 9 10 11 10 11 11 10 10 10 11 11 10 11 9 10 12 11 12 12 10 11 12 11 12 10 11 13 12 11 10 9 9 9 8 8 9 9 9 9 8
8 8 9 10 11 9 11 11 10 9 10 11 10 10 10 10 8 8 12 12 12 13 12 10 11 11 11 10 10 11 11 10 10 10 10 9 10 10 10 10 8 8
8 8 9 10 10 9 10 9 9 9 9 8 9 11 9 8 10 9 10 11 11 12 11 10 10 10 11 10 10 10 10 10 10 10 9 10 10 10 9 7 8 7
8 8 7 8 8 7 6 7 8 8 9 9 8 9 11 10 8 9 9 11 10 10 10 10 10 10 10 10 11 10 12 11 10 9 10 10 10 8 7 6 6 6
7 6 6 6 6 5 6 7 7 7 8 7 8 10 10 11 13 11 9 9 10 10 9 9 10 10 9 11 12 13 11 10 10 11 12 10 7 7 6 6 5 5
6 5 5 6 6 6 7 7 7 7 7 8 8 9 9 10 9 11 11 9 9 9 9 9 11 12 11 13 15 11 10 12 12 11 10 9 8 7 6 6 6 5
4 3 4 5 6 8 8 8 8 7 8 8 8 8 8 8 9 9 11 14 12 9 10 10 11 11 13 17 15 11 13 11 9 9 9 9 9 9 7 6 6 5
2 3 2 4 5 5 5 6 7 7 7 8 8 8 9 9 9 9 10 11 12 13 13 11 11 9 15 15 17 16 10 9 10 9 9 9 9 9 9 8 7 7
4 3 3 2 2 4 5 5 6 7 8 8 8 9 7 7 10 11 11 11 10 10 10 10 10 10 16 17 16 16 14 10 8 9 8 8 8 8 8 8 9 8
5 5 5 4 4 5 5 6 7 7 8 8 9 8 8 10 10 10 10 9 9 10 9 9 9 12 16 18 16 17 16 12 7 8 9 9 9 8 9 9 9 8
5 6 6 6 5 5 5 6 6 8 6 6 5 5 8 8 7 9 7 8 8 8 8 7 7 13 18 18 17 18 15 10 7 8 8 8 8 9 8 9 9 9
6 6 7 6 7 7 7 7 7 6 5 4 4 6 8 8 8 7 5 6 7 7 8 8 8 16 19 19 18 19 15 8 8 7 7 7 6 7 8 8 9 7
7 7 6 6 6 6 6 7 6 6 7 5 5 4 3 4 4 5 8 8 8 9 11 10 9 19 19 19 20 18 15 6 8 8 7 7 7 7 6 6 7 7
8 8 8 8 7 7 7 6 7 6 4 4 6 6 7 7 7 7 7 7 8 8 9 9 10 17 18 19 19 18 13 6 6 6 6 7 7 6 6 6 6 7
7 8 7 7 7 8 8 6 5 4 6 6 7 7 6 5 6 6 6 6 7 8 8 8 8 14 18 17 16 18 8 9 8 7 7 6 6 6 5 5 5 6
7 6 5 6 7 7 6 6 6 6 5 4 3 3 4 5 5 5 6 5 6 6 7 8 8 12 17 15 15 16 12 6 7 7 8 6 6 6 5 4 6 7
4 5 5 6 7 6 5 5 4 4 5 5 4 4 4 4 5 4 8 4 3 4 6 6 8 8 13 14 15 16 14 10 6 9 8 8 6 7 7 6 6 6
Wind_Direction
219 216 216 217 217 216 215 212 209 204 203 201 201 203 203 205 201 195 198 196 193 191 188 185 178 172 167 169 175 172 176 174 179 182 181 173 163 165 172 173 183 184
222 220 217 216 218 214 217 212 206 204 203 202 204 204 205 199 193 190 192 188 178 185 177 177 174 169 165 168 168 169 170 178 180 184 194 187 175 174 176 175 172 172
225 221 220 217 217 216 214 211 207 204 205 202 201 202 194 185 187 181 177 175 175 175 173 176 173 169 166 169 169 163 172 177 177 174 189 179 174 174 166 161 159 161
226 225 224 223 222 219 207 210 204 197 198 194 197 193 180 179 174 178 175 172 176 175 170 169 169 169 170 169 169 157 161 162 165 163 163 161 164 159 156 155 142 137
225 224 217 215 216 213 203 211 201 192 195 193 186 181 174 172 178 176 175 177 175 172 171 169 163 159 155 156 151 152 162 161 160 169 163 157 155 156 152 148 144 137
216 216 212 210 208 212 209 207 200 193 190 188 187 155 177 177 177 176 174 173 171 169 168 165 166 159 160 148 149 156 165 165 165 170 162 154 145 150 151 143 136 139
212 208 206 201 199 204 205 198 195 194 194 191 175 177 173 178 180 178 175 174 167 167 167 166 166 159 157 151 149 158 167 166 161 163 136 153 144 136 136 145 148 148
212 203 200 196 195 195 201 198 196 194 187 174 182 181 180 181 181 179 176 175 171 170 169 168 169 160 157 155 151 156 160 162 166 168 154 149 147 143 143 140 147 150
205 200 194 194 194 194 197 194 190 188 182 180 182 181 186 184 180 176 174 173 171 170 169 166 168 166 157 157 158 159 167 168 165 164 157 154 153 149 150 145 148 153
207 197 196 196 198 196 197 196 190 188 181 184 183 177 181 186 181 172 169 168 168 156 158 158 167 160 164 170 172 170 169 168 165 157 155 157 159 159 158 164 164 159
209 198 198 200 200 198 200 194 190 184 182 184 175 178 179 167 169 173 168 166 165 154 158 164 166 165 163 166 165 170 168 163 164 153 154 160 167 172 173 172 165 170
210 205 206 204 203 201 198 190 184 180 179 179 174 171 162 168 167 169 171 166 164 168 165 161 162 165 165 164 161 158 156 153 130 130 155 164 174 179 176 167 167 165
211 209 208 206 202 197 184 180 180 177 173 172 171 164 162 161 170 167 168 159 159 159 163 159 163 166 166 162 159 159 150 151 154 154 161 170 180 168 162 151 154 159
213 204 201 198 189 179 179 181 176 173 175 164 159 163 169 169 166 168 163 153 155 164 163 162 162 164 165 161 131 136 155 161 159 163 170 172 155 147 140 147 155 158
207 199 192 181 174 172 172 174 174 170 163 162 168 169 170 170 165 157 153 150 156 162 162 167 170 163 154 155 146 159 159 164 168 168 159 147 143 136 137 148 152 145
214 199 189 178 174 176 178 171 167 165 161 165 169 166 163 161 158 165 160 156 159 167 167 165 161 160 168 164 164 160 166 169 162 153 150 145 140 137 142 147 141 129
216 212 185 188 187 169 160 159 156 155 159 162 161 162 163 163 159 162 167 162 158 149 154 165 155 165 165 166 167 166 163 155 153 149 147 142 142 148 152 148 140 133
198 181 185 186 158 164 159 158 153 157 163 163 160 159 162 163 168 169 162 127 126 157 169 159 133 162 167 169 172 173 174 161 151 145 146 145 147 150 148 145 145 144
180 180 178 166 174 164 162 158 164 166 167 166 171 170 149 165 166 152 141 117 153 162 167 168 167 169 170 173 176 174 171 164 143 144 144 149 154 152 150 150 149 149
179 178 177 174 163 161 162 167 170 175 173 169 152 140 156 155 145 153 147 154 161 161 159 165 166 177 176 175 176 172 167 157 141 142 141 146 152 153 152 153 154 153
179 178 176 169 167 167 169 173 176 165 157 153 150 156 157 161 158 159 161 160 167 170 167 172 185 176 180 178 173 174 161 135 134 124 132 141 145 150 151 149 153 155
177 178 173 169 167 167 173 175 174 170 164 154 149 154 155 150 155 164 167 175 179 179 183 185 179 177 177 174 171 166 151 134 138 140 139 145 150 153 149 146 151 155
183 178 175 172 174 175 182 180 171 166 164 161 160 168 167 173 174 178 179 178 177 178 178 176 171 174 172 168 166 157 149 139 132 133 138 143 149 144 143 146 158 164
186 183 179 177 176 186 185 181 173 169 170 171 173 171 174 176 170 176 180 180 177 180 181 169 165 172 170 164 158 163 148 136 146 141 138 140 133 136 141 152 160 162
183 184 185 181 185 187 180 176 176 172 166 168 178 169 165 166 172 168 174 173 177 177 167 167 164 169 172 164 160 160 154 142 141 141 141 147 144 146 148 145 160 176
178 181 186 183 184 175 170 172 160 156 159 169 165 175 160 154 167 161 167 155 143 164 167 171 165 169 174 162 161 161 161 157 148 146 151 152 154 154 155 166 175 179